Overview Statistics Trail Chart Weather Telemetry Raw packets
 

This is the latest recevied weather packets stored in our database for station/object OK2ZA-6. If no packets are shown the sender has not sent any weather packets the latest 10 day(s).

<< 35 36 37 38 39 40 41 >>
Time Temp. Humidity Pressure Rain* Wind** Luminosity Snow
1788168604 20° C 81% 1016.4 hPa 0 mm - - -
1788168004 20° C 84% 1016.3 hPa 0 mm - - -
1788167404 20° C 86% 1016.2 hPa 0 mm - - -
1788166804 20° C 87% 1016.1 hPa 0 mm - - -
1788166220 20° C 85% 1016 hPa 0 mm - - -
1788165604 19.44° C 85% 1016.1 hPa 0 mm - - -
1788165004 18.89° C 87% 1015.9 hPa 0 mm - - -
1788164404 18.33° C 88% 1015.9 hPa 0 mm - - -
1788163807 18.33° C 89% 1015.8 hPa 0 mm - - -
1788163204 18.33° C 88% 1015.6 hPa 0 mm - - -
1788162604 17.78° C 88% 1015.4 hPa 0 mm - - -
1788162004 17.78° C 89% 1015.4 hPa 0 mm - - -
1788161404 17.78° C 89% 1014.7 hPa 0 mm - - -
1788160804 17.78° C 89% 1015.4 hPa 0 mm - - -
1788160204 17.78° C 89% 1015.6 hPa 0 mm - - -
1788159604 17.78° C 88% 1015.5 hPa 0 mm - - -
1788159004 17.78° C 89% 1015.3 hPa 0 mm - - -
1788158404 17.78° C 89% 1015 hPa 0 mm - - -
1788157804 17.78° C 88% 1014.9 hPa 0 mm - - -
1788157203 17.22° C 88% 1015 hPa 0 mm - - -
1788156604 17.22° C 88% 1015 hPa 0 mm - - -
1788156004 17.22° C 88% 1015.1 hPa 0 mm - - -
1788155403 17.22° C 88% 1015.2 hPa 0 mm - - -
1788154803 17.22° C 86% 1015.2 hPa 0 mm - - -
1788154204 18.33° C 85% 1015.3 hPa 0 mm - - -

* Rain latest hour (hover to see other rain measurements)
** Current wind speed in m/s (hover to see current wind gust speed)